Location: Innsbruck
(47.2657°N, 11.3914°E)
Time: 14:07:01
(UTC+02:00)

Envisat - Pass Details

Date: 29 September 2021
Orbit: 764 x 766 km, 98.2° (Epoch: 20 October)

Event Time Altitude Azimuth Distance (km) Brightness Sun altitude
Rises 05:08:18 0° 29° (NNE) 3,242 7.0 -21.2°
Reaches altitude 10° 05:11:29 10° 50° (NE) 2,309 6.5 -20.7°
Maximum altitude 05:14:40 17° 89° (E) 1,886 5.9 -20.2°
Drops below altitude 10° 05:17:51 10° 128° (SE) 2,298 5.9 -19.7°
Sets 05:20:59 0° 149° (SSE) 3,218 6.4 -19.2°
